TimeEET,TemperatureF,Dew PointF,Humidity,Sea Level PressureIn,VisibilityMPH,Wind Direction,Wind SpeedMPH,Gust SpeedMPH,PrecipitationIn,Events,Conditions,WindDirDegrees,DateUTC
12:20 AM,60.8,59.0,94,29.89,4.3,SSW,4.6,-,N/A,,Partly Cloudy,210,2012-11-02 22:20:00
12:50 AM,60.8,60.8,100,29.89,5.0,West,4.6,-,N/A,,Scattered Clouds,270,2012-11-02 22:50:00
1:20 AM,60.8,60.8,100,29.89,6.2,West,8.1,-,N/A,,Scattered Clouds,280,2012-11-02 23:20:00
1:50 AM,60.8,60.8,100,29.89,5.0,WSW,9.2,-,N/A,,Scattered Clouds,250,2012-11-02 23:50:00
2:20 AM,60.8,60.8,100,29.92,5.0,West,6.9,-,N/A,,Scattered Clouds,280,2012-11-03 00:20:00
2:50 AM,59.0,59.0,100,29.92,5.0,West,4.6,-,N/A,,Mostly Cloudy,260,2012-11-03 00:50:00
3:20 AM,59.0,59.0,100,29.92,5.0,West,5.8,-,N/A,,Mostly Cloudy,260,2012-11-03 01:20:00
3:50 AM,59.0,59.0,100,29.92,5.0,SW,4.6,-,N/A,,Mostly Cloudy,230,2012-11-03 01:50:00
4:20 AM,59.0,59.0,100,29.92,5.0,West,4.6,-,N/A,,Mostly Cloudy,270,2012-11-03 02:20:00
4:50 AM,59.0,59.0,100,29.95,5.0,West,6.9,-,N/A,,Mostly Cloudy,260,2012-11-03 02:50:00
5:20 AM,59.0,59.0,100,29.95,6.2,WSW,4.6,-,N/A,,Mostly Cloudy,250,2012-11-03 03:20:00
5:50 AM,60.8,59.0,94,29.95,5.0,West,6.9,-,N/A,,Mostly Cloudy,260,2012-11-03 03:50:00
6:20 AM,59.0,59.0,100,29.95,2.5,WSW,5.8,-,N/A,,Mostly Cloudy,250,2012-11-03 04:20:00
6:50 AM,59.0,59.0,100,29.98,2.5,West,4.6,-,N/A,,Mostly Cloudy,280,2012-11-03 04:50:00
7:20 AM,59.0,59.0,100,29.98,2.5,NNW,4.6,-,N/A,,Scattered Clouds,330,2012-11-03 05:20:00
7:50 AM,59.0,59.0,100,30.01,1.6,WNW,6.9,-,N/A,,Scattered Clouds,300,2012-11-03 05:50:00
8:20 AM,60.8,60.8,100,30.01,1.2,NW,5.8,-,N/A,,Mostly Cloudy,320,2012-11-03 06:20:00
8:50 AM,60.8,60.8,100,30.01,1.9,NW,8.1,-,N/A,,Mostly Cloudy,320,2012-11-03 06:50:00
9:20 AM,62.6,60.8,94,30.04,2.2,NNW,5.8,-,N/A,,Mostly Cloudy,330,2012-11-03 07:20:00
9:50 AM,64.4,60.8,88,30.04,3.1,Variable,2.3,-,N/A,,Scattered Clouds,0,2012-11-03 07:50:00
10:20 AM,64.4,59.0,83,30.04,3.1,Variable,3.5,-,N/A,,Mostly Cloudy,0,2012-11-03 08:20:00
10:50 AM,64.4,59.0,83,30.04,3.1,Variable,3.5,-,N/A,,Mostly Cloudy,0,2012-11-03 08:50:00
11:20 AM,66.2,59.0,78,30.04,3.7,Variable,2.3,-,N/A,,Mostly Cloudy,0,2012-11-03 09:20:00
11:50 AM,66.2,60.8,83,30.04,4.3,South,4.6,-,N/A,,Scattered Clouds,190,2012-11-03 09:50:00
12:20 PM,68.0,59.0,73,30.04,6.2,Variable,3.5,-,N/A,,Scattered Clouds,0,2012-11-03 10:20:00
12:50 PM,68.0,59.0,73,30.04,4.3,South,4.6,-,N/A,,Scattered Clouds,190,2012-11-03 10:50:00
1:20 PM,68.0,59.0,73,30.04,5.0,Variable,2.3,-,N/A,,Scattered Clouds,0,2012-11-03 11:20:00
1:50 PM,69.8,60.8,73,30.04,6.2,Variable,3.5,-,N/A,,Scattered Clouds,0,2012-11-03 11:50:00
2:20 PM,69.8,59.0,68,30.04,6.2,Variable,3.5,-,N/A,,Scattered Clouds,0,2012-11-03 12:20:00
2:50 PM,68.0,59.0,73,30.04,6.2,East,4.6,-,N/A,,Scattered Clouds,100,2012-11-03 12:50:00
3:20 PM,68.0,59.0,73,30.04,6.2,ESE,6.9,-,N/A,,Scattered Clouds,120,2012-11-03 13:20:00
3:50 PM,66.2,60.8,83,30.06,6.2,SE,6.9,-,N/A,,Scattered Clouds,130,2012-11-03 13:50:00
4:20 PM,64.4,60.8,88,30.06,6.2,SE,5.8,-,N/A,,Scattered Clouds,130,2012-11-03 14:20:00
4:50 PM,62.6,59.0,88,30.06,5.0,ESE,4.6,-,N/A,,Scattered Clouds,120,2012-11-03 14:50:00
5:20 PM,60.8,59.0,94,30.06,4.3,East,5.8,-,N/A,,Partly Cloudy,90,2012-11-03 15:20:00
5:50 PM,60.8,59.0,94,30.06,5.0,East,4.6,-,N/A,,Partly Cloudy,90,2012-11-03 15:50:00
6:20 PM,60.8,59.0,94,30.09,5.0,NE,6.9,-,N/A,,Unknown,50,2012-11-03 16:20:00
6:50 PM,59.0,57.2,94,30.09,-9999.0,NE,5.8,-,N/A,,Clear,40,2012-11-03 16:50:00
7:20 PM,59.0,57.2,94,30.09,-9999.0,NE,8.1,-,N/A,,Clear,50,2012-11-03 17:20:00
7:50 PM,59.0,57.2,94,30.09,-9999.0,NE,9.2,-,N/A,,Clear,50,2012-11-03 17:50:00
8:20 PM,59.0,57.2,94,30.09,-9999.0,NE,8.1,-,N/A,,Clear,50,2012-11-03 18:20:00
8:50 PM,59.0,57.2,94,30.09,-9999.0,ENE,9.2,-,N/A,,Clear,60,2012-11-03 18:50:00
9:20 PM,59.0,57.2,94,30.09,-9999.0,East,6.9,-,N/A,,Clear,80,2012-11-03 19:20:00
9:50 PM,57.2,57.2,100,30.09,-9999.0,ENE,8.1,-,N/A,,Clear,70,2012-11-03 19:50:00
10:20 PM,57.2,55.4,94,30.09,-9999.0,ENE,6.9,-,N/A,,Clear,60,2012-11-03 20:20:00
10:50 PM,57.2,55.4,94,30.09,-9999.0,ENE,6.9,-,N/A,,Clear,70,2012-11-03 20:50:00
11:20 PM,55.4,55.4,100,30.09,-9999.0,NE,5.8,-,N/A,,Clear,40,2012-11-03 21:20:00
11:50 PM,55.4,53.6,94,30.09,-9999.0,NE,9.2,-,N/A,,Clear,50,2012-11-03 21:50:00